Time,TemperatureF,DewpointF,PressureIn,WindDirection,WindDirectionDegrees,WindSpeedMPH,WindSpeedGustMPH,Humidity,HourlyPrecipIn,Conditions,Clouds,dailyrainin,SoftwareType,DateUTC
2013-02-17 00:00:00,13.2,6.8,30.02,WNW,292,7.0,9.0,75,0.00,,---,0.00,VWS V14.01,2013-02-17 05:00:00,
2013-02-17 00:05:00,13.1,6.4,30.03,WNW,289,3.0,10.0,74,0.00,,---,0.00,VWS V14.01,2013-02-17 05:05:00,
2013-02-17 00:10:00,13.0,6.3,30.03,North,359,3.0,12.0,74,0.00,,---,0.00,VWS V14.01,2013-02-17 05:10:00,
2013-02-17 00:15:00,12.8,6.7,30.03,WSW,241,6.0,14.0,76,0.00,,---,0.00,VWS V14.01,2013-02-17 05:15:00,
2013-02-17 00:20:00,12.8,6.4,30.03,West,274,5.0,13.0,75,0.00,,---,0.00,VWS V14.01,2013-02-17 05:20:00,
2013-02-17 00:25:00,12.6,6.2,30.03,NNW,343,2.0,12.0,75,0.00,,---,0.00,VWS V14.01,2013-02-17 05:25:00,
2013-02-17 00:30:00,12.5,6.4,30.04,NW,305,10.0,10.0,76,0.00,,---,0.00,VWS V14.01,2013-02-17 05:30:00,
2013-02-17 00:35:00,12.4,6.3,30.04,West,266,4.0,12.0,76,0.00,,---,0.00,VWS V14.01,2013-02-17 05:35:00,
2013-02-17 00:40:00,12.4,6.0,30.04,NW,307,5.0,7.0,75,0.00,,---,0.00,VWS V14.01,2013-02-17 05:40:00,
2013-02-17 00:45:00,12.5,6.1,30.04,NW,320,2.0,7.0,75,0.00,,---,0.00,VWS V14.01,2013-02-17 05:45:00,
2013-02-17 00:50:00,12.6,5.9,30.04,NNW,346,2.0,13.0,74,0.00,,---,0.00,VWS V14.01,2013-02-17 05:50:00,
2013-02-17 00:55:00,12.4,5.7,30.04,WNW,284,3.0,9.0,74,0.00,,---,0.00,VWS V14.01,2013-02-17 05:55:00,
2013-02-17 01:00:00,12.2,5.8,30.04,WNW,291,7.0,9.0,75,0.00,,---,0.00,VWS V14.01,2013-02-17 06:00:00,
2013-02-17 01:05:00,12.1,5.4,30.04,WSW,241,7.0,9.0,74,0.00,,---,0.00,VWS V14.01,2013-02-17 06:05:00,
2013-02-17 01:10:00,12.1,5.4,30.04,NW,322,3.0,7.0,74,0.00,,---,0.00,VWS V14.01,2013-02-17 06:10:00,
2013-02-17 01:15:00,12.1,5.4,30.05,WNW,301,7.0,12.0,74,0.00,,---,0.00,VWS V14.01,2013-02-17 06:15:00,
2013-02-17 01:20:00,12.2,5.5,30.05,NNW,341,4.0,11.0,74,0.00,,---,0.00,VWS V14.01,2013-02-17 06:20:00,
2013-02-17 01:25:00,12.1,5.4,30.05,South,170,0.0,5.0,74,0.00,,---,0.00,VWS V14.01,2013-02-17 06:25:00,
2013-02-17 01:30:00,11.9,5.2,30.05,NNW,336,3.0,7.0,74,0.00,,---,0.00,VWS V14.01,2013-02-17 06:30:00,
2013-02-17 01:35:00,11.7,5.0,30.05,WSW,251,9.0,9.0,74,0.00,,---,0.00,VWS V14.01,2013-02-17 06:35:00,
2013-02-17 01:40:00,11.6,5.2,30.05,East,95,3.0,8.0,75,0.00,,---,0.00,VWS V14.01,2013-02-17 06:40:00,
2013-02-17 01:45:00,11.7,5.0,30.05,WSW,243,6.0,7.0,74,0.00,,---,0.00,VWS V14.01,2013-02-17 06:45:00,
2013-02-17 01:50:00,11.7,4.4,30.05,WSW,254,4.0,13.0,72,0.00,,---,0.00,VWS V14.01,2013-02-17 06:50:00,
2013-02-17 01:55:00,11.6,4.3,30.05,WNW,299,3.0,12.0,72,0.00,,---,0.00,VWS V14.01,2013-02-17 06:55:00,
2013-02-17 02:00:00,11.6,4.6,30.04,SSW,199,5.0,9.0,73,0.00,,---,0.00,VWS V14.01,2013-02-17 07:00:00,
2013-02-17 02:05:00,11.6,4.6,30.04,SW,230,5.0,14.0,73,0.00,,---,0.00,VWS V14.01,2013-02-17 07:05:00,
2013-02-17 02:10:00,11.6,4.6,30.04,WSW,248,6.0,8.0,73,0.00,,---,0.00,VWS V14.01,2013-02-17 07:10:00,
2013-02-17 02:15:00,11.7,4.4,30.04,WSW,241,4.0,9.0,72,0.00,,---,0.00,VWS V14.01,2013-02-17 07:15:00,
2013-02-17 02:20:00,11.4,4.7,30.04,WNW,284,8.0,10.0,74,0.00,,---,0.00,VWS V14.01,2013-02-17 07:20:00,
2013-02-17 02:25:00,11.4,4.7,30.04,North,5,3.0,16.0,74,0.00,,---,0.00,VWS V14.01,2013-02-17 07:25:00,
2013-02-17 02:30:00,11.4,4.7,30.03,WNW,288,9.0,11.0,74,0.00,,---,0.00,VWS V14.01,2013-02-17 07:30:00,
2013-02-17 02:35:00,11.3,4.9,30.04,North,357,2.0,11.0,75,0.00,,---,0.00,VWS V14.01,2013-02-17 07:35:00,
2013-02-17 02:40:00,11.2,4.8,30.04,NW,309,10.0,15.0,75,0.00,,---,0.00,VWS V14.01,2013-02-17 07:40:00,
2013-02-17 02:45:00,11.3,4.9,30.04,North,1,5.0,8.0,75,0.00,,---,0.00,VWS V14.01,2013-02-17 07:45:00,
2013-02-17 02:50:00,11.2,4.8,30.04,NNE,15,4.0,11.0,75,0.00,,---,0.00,VWS V14.01,2013-02-17 07:50:00,
2013-02-17 02:55:00,11.1,5.0,30.04,NW,309,8.0,8.0,76,0.00,,---,0.00,VWS V14.01,2013-02-17 07:55:00,
2013-02-17 03:00:00,11.0,4.9,30.04,South,170,4.0,9.0,76,0.00,,---,0.00,VWS V14.01,2013-02-17 08:00:00,
2013-02-17 03:05:00,11.0,5.2,30.04,SSW,200,3.0,10.0,77,0.00,,---,0.00,VWS V14.01,2013-02-17 08:05:00,
2013-02-17 03:10:00,11.2,4.8,30.05,West,269,6.0,11.0,75,0.00,,---,0.00,VWS V14.01,2013-02-17 08:10:00,
2013-02-17 03:15:00,11.2,4.8,30.06,NW,307,3.0,10.0,75,0.00,,---,0.00,VWS V14.01,2013-02-17 08:15:00,
2013-02-17 03:20:00,11.2,4.8,30.05,NNW,328,6.0,11.0,75,0.00,,---,0.00,VWS V14.01,2013-02-17 08:20:00,
2013-02-17 03:25:00,11.0,4.6,30.06,WSW,244,5.0,14.0,75,0.00,,---,0.00,VWS V14.01,2013-02-17 08:25:00,
2013-02-17 03:30:00,11.0,4.6,30.06,NNE,12,3.0,11.0,75,0.00,,---,0.00,VWS V14.01,2013-02-17 08:30:00,
2013-02-17 03:35:00,10.9,4.8,30.06,West,267,10.0,10.0,76,0.00,,---,0.00,VWS V14.01,2013-02-17 08:35:00,
2013-02-17 03:40:00,10.9,4.6,30.06,NW,324,4.0,7.0,75,0.00,,---,0.00,VWS V14.01,2013-02-17 08:40:00,
2013-02-17 03:45:00,10.9,4.8,30.06,West,259,6.0,7.0,76,0.00,,---,0.00,VWS V14.01,2013-02-17 08:45:00,
2013-02-17 03:50:00,10.9,4.8,30.06,NNW,334,1.0,13.0,76,0.00,,---,0.00,VWS V14.01,2013-02-17 08:50:00,
2013-02-17 03:55:00,10.9,4.8,30.06,NW,314,2.0,5.0,76,0.00,,---,0.00,VWS V14.01,2013-02-17 08:55:00,
2013-02-17 04:00:00,10.8,5.0,30.06,WSW,255,11.0,18.0,77,0.00,,---,0.00,VWS V14.01,2013-02-17 09:00:00,
2013-02-17 04:05:00,10.9,4.8,30.06,North,11,5.0,10.0,76,0.00,,---,0.00,VWS V14.01,2013-02-17 09:05:00,
2013-02-17 04:10:00,10.9,4.8,30.06,West,259,6.0,11.0,76,0.00,,---,0.00,VWS V14.01,2013-02-17 09:10:00,
2013-02-17 04:15:00,10.8,5.0,30.06,NNW,331,5.0,16.0,77,0.00,,---,0.00,VWS V14.01,2013-02-17 09:15:00,
2013-02-17 04:20:00,10.8,5.0,30.06,WSW,241,5.0,13.0,77,0.00,,---,0.00,VWS V14.01,2013-02-17 09:20:00,
2013-02-17 04:25:00,10.7,5.2,30.06,WSW,255,4.0,7.0,78,0.00,,---,0.00,VWS V14.01,2013-02-17 09:25:00,
2013-02-17 04:30:00,10.6,5.1,30.07,South,181,6.0,9.0,78,0.00,,---,0.00,VWS V14.01,2013-02-17 09:30:00,
2013-02-17 04:35:00,10.8,5.0,30.07,West,259,3.0,10.0,77,0.00,,---,0.00,VWS V14.01,2013-02-17 09:35:00,
2013-02-17 04:40:00,10.7,4.9,30.07,North,359,4.0,7.0,77,0.00,,---,0.00,VWS V14.01,2013-02-17 09:40:00,
2013-02-17 04:45:00,10.6,5.1,30.07,WNW,285,6.0,11.0,78,0.00,,---,0.00,VWS V14.01,2013-02-17 09:45:00,
2013-02-17 04:50:00,10.6,5.1,30.07,WNW,284,5.0,11.0,78,0.00,,---,0.00,VWS V14.01,2013-02-17 09:50:00,
2013-02-17 04:55:00,10.4,5.2,30.07,SW,226,2.0,10.0,79,0.00,,---,0.00,VWS V14.01,2013-02-17 09:55:00,
2013-02-17 05:00:00,10.4,5.2,30.07,NW,309,9.0,11.0,79,0.00,,---,0.00,VWS V14.01,2013-02-17 10:00:00,
2013-02-17 05:05:00,10.5,5.3,30.08,West,262,5.0,8.0,79,0.00,,---,0.00,VWS V14.01,2013-02-17 10:05:00,
2013-02-17 05:10:00,10.5,5.3,30.08,WNW,293,4.0,10.0,79,0.00,,---,0.00,VWS V14.01,2013-02-17 10:10:00,
2013-02-17 05:15:00,10.4,5.2,30.08,NW,312,4.0,6.0,79,0.00,,---,0.00,VWS V14.01,2013-02-17 10:15:00,
2013-02-17 05:20:00,10.4,5.2,30.08,NNE,17,7.0,8.0,79,0.00,,---,0.00,VWS V14.01,2013-02-17 10:20:00,
2013-02-17 05:25:00,10.4,5.2,30.09,WSW,257,8.0,8.0,79,0.00,,---,0.00,VWS V14.01,2013-02-17 10:25:00,
2013-02-17 05:30:00,10.4,5.2,30.09,SW,230,7.0,8.0,79,0.00,,---,0.00,VWS V14.01,2013-02-17 10:30:00,
2013-02-17 05:35:00,10.4,5.2,30.09,West,263,6.0,8.0,79,0.00,,---,0.00,VWS V14.01,2013-02-17 10:35:00,
2013-02-17 05:40:00,10.5,5.3,30.09,NNW,347,4.0,6.0,79,0.00,,---,0.00,VWS V14.01,2013-02-17 10:40:00,
2013-02-17 05:45:00,10.4,5.2,30.10,West,281,5.0,10.0,79,0.00,,---,0.00,VWS V14.01,2013-02-17 10:45:00,
2013-02-17 05:50:00,10.5,5.0,30.10,NW,320,7.0,12.0,78,0.00,,---,0.00,VWS V14.01,2013-02-17 10:50:00,
2013-02-17 05:55:00,10.5,5.0,30.10,North,10,4.0,7.0,78,0.00,,---,0.00,VWS V14.01,2013-02-17 10:55:00,
2013-02-17 06:00:00,10.4,5.2,30.11,WNW,301,2.0,11.0,79,0.00,,---,0.00,VWS V14.01,2013-02-17 11:00:00,
2013-02-17 06:05:00,10.4,5.2,30.11,SE,126,5.0,10.0,79,0.00,,---,0.00,VWS V14.01,2013-02-17 11:05:00,
2013-02-17 06:10:00,10.4,5.2,30.11,NNW,339,4.0,7.0,79,0.00,,---,0.00,VWS V14.01,2013-02-17 11:10:00,
2013-02-17 06:15:00,10.6,5.1,30.11,WSW,253,6.0,9.0,78,0.00,,---,0.00,VWS V14.01,2013-02-17 11:15:00,
2013-02-17 06:20:00,10.7,5.2,30.12,West,268,5.0,7.0,78,0.00,,---,0.00,VWS V14.01,2013-02-17 11:20:00,
2013-02-17 06:25:00,10.7,5.2,30.12,North,4,6.0,11.0,78,0.00,,---,0.00,VWS V14.01,2013-02-17 11:25:00,
2013-02-17 06:30:00,10.7,5.2,30.12,NW,324,5.0,7.0,78,0.00,,---,0.00,VWS V14.01,2013-02-17 11:30:00,
2013-02-17 06:35:00,10.8,5.3,30.12,SSW,193,8.0,9.0,78,0.00,,---,0.00,VWS V14.01,2013-02-17 11:35:00,
2013-02-17 06:40:00,11.1,5.3,30.12,WNW,293,12.0,12.0,77,0.00,,---,0.00,VWS V14.01,2013-02-17 11:40:00,
2013-02-17 06:45:00,11.0,5.5,30.12,SW,232,6.0,8.0,78,0.00,,---,0.00,VWS V14.01,2013-02-17 11:45:00,
2013-02-17 06:50:00,11.0,5.8,30.13,ENE,76,3.0,14.0,79,0.00,,---,0.00,VWS V14.01,2013-02-17 11:50:00,
2013-02-17 06:55:00,11.1,5.6,30.13,NW,315,6.0,10.0,78,0.00,,---,0.00,VWS V14.01,2013-02-17 11:55:00,
2013-02-17 07:00:00,11.1,5.6,30.13,West,277,8.0,16.0,78,0.00,,---,0.00,VWS V14.01,2013-02-17 12:00:00,
2013-02-17 07:05:00,11.2,5.4,30.13,North,5,3.0,7.0,77,0.00,,---,0.00,VWS V14.01,2013-02-17 12:05:00,
2013-02-17 07:10:00,11.2,5.7,30.13,North,356,4.0,10.0,78,0.00,,---,0.00,VWS V14.01,2013-02-17 12:10:00,
2013-02-17 07:15:00,11.3,5.5,30.13,WNW,293,11.0,11.0,77,0.00,,---,0.00,VWS V14.01,2013-02-17 12:15:00,
2013-02-17 07:20:00,11.7,5.9,30.14,WNW,294,11.0,16.0,77,0.00,,---,0.00,VWS V14.01,2013-02-17 12:20:00,
2013-02-17 07:25:00,12.1,6.0,30.14,NW,304,10.0,10.0,76,0.00,,---,0.00,VWS V14.01,2013-02-17 12:25:00,
2013-02-17 07:30:00,12.6,6.5,30.14,SSW,208,7.0,8.0,76,0.00,,---,0.00,VWS V14.01,2013-02-17 12:30:00,
2013-02-17 07:35:00,12.9,6.8,30.13,SW,232,5.0,11.0,76,0.00,,---,0.00,VWS V14.01,2013-02-17 12:35:00,
2013-02-17 07:40:00,13.3,6.6,30.15,North,7,6.0,9.0,74,0.00,,---,0.00,VWS V14.01,2013-02-17 12:40:00,
2013-02-17 07:45:00,13.8,7.4,30.15,WSW,251,4.0,9.0,75,0.00,,---,0.00,VWS V14.01,2013-02-17 12:45:00,
2013-02-17 07:50:00,14.2,7.7,30.16,NW,308,5.0,9.0,75,0.00,,---,0.00,VWS V14.01,2013-02-17 12:50:00,
2013-02-17 07:55:00,14.6,8.1,30.15,NNW,339,9.0,15.0,75,0.00,,---,0.00,VWS V14.01,2013-02-17 12:55:00,
2013-02-17 07:59:00,14.8,7.7,30.16,WSW,238,7.0,8.0,73,0.00,,---,0.00,VWS V14.01,2013-02-17 12:59:00,
2013-02-17 08:04:00,14.8,7.7,30.15,SW,222,12.0,14.0,73,0.00,,---,0.00,VWS V14.01,2013-02-17 13:04:00,
2013-02-17 08:09:00,15.3,7.9,30.15,NW,306,11.0,11.0,72,0.00,,---,0.00,VWS V14.01,2013-02-17 13:09:00,
2013-02-17 08:14:00,15.9,9.1,30.16,NNW,348,8.0,8.0,74,0.00,,---,0.00,VWS V14.01,2013-02-17 13:14:00,
2013-02-17 08:19:00,16.1,9.0,30.16,West,280,13.0,16.0,73,0.00,,---,0.00,VWS V14.01,2013-02-17 13:19:00,
2013-02-17 08:24:00,16.1,8.4,30.16,SSW,201,8.0,12.0,71,0.00,,---,0.00,VWS V14.01,2013-02-17 13:24:00,
2013-02-17 08:30:00,16.9,9.4,30.16,WSW,237,5.0,9.0,72,0.00,,---,0.00,VWS V14.01,2013-02-17 13:30:00,
2013-02-17 08:35:00,17.1,9.9,30.15,NW,310,10.0,15.0,73,0.00,,---,0.00,VWS V14.01,2013-02-17 13:35:00,
2013-02-17 08:40:00,17.3,9.2,30.17,NW,314,10.0,13.0,70,0.00,,---,0.00,VWS V14.01,2013-02-17 13:40:00,
2013-02-17 08:45:00,17.3,9.2,30.17,WNW,282,9.0,12.0,70,0.00,,---,0.00,VWS V14.01,2013-02-17 13:45:00,
2013-02-17 08:50:00,17.2,8.8,30.18,North,10,4.0,8.0,69,0.00,,---,0.00,VWS V14.01,2013-02-17 13:50:00,
2013-02-17 08:55:00,17.5,9.4,30.17,WNW,290,7.0,12.0,70,0.00,,---,0.00,VWS V14.01,2013-02-17 13:55:00,
2013-02-17 09:00:00,18.0,10.2,30.17,WSW,237,7.0,13.0,71,0.00,,---,0.00,VWS V14.01,2013-02-17 14:00:00,
2013-02-17 09:05:00,19.0,10.5,30.18,WNW,303,14.0,16.0,69,0.00,,---,0.00,VWS V14.01,2013-02-17 14:05:00,
2013-02-17 09:10:00,18.7,9.6,30.18,NW,316,3.0,9.0,67,0.00,,---,0.00,VWS V14.01,2013-02-17 14:10:00,
2013-02-17 09:14:00,19.0,9.9,30.17,West,280,5.0,12.0,67,0.00,,---,0.00,VWS V14.01,2013-02-17 14:14:00,
2013-02-17 09:19:00,18.8,9.7,30.18,North,353,1.0,10.0,67,0.00,,---,0.00,VWS V14.01,2013-02-17 14:19:00,
2013-02-17 09:24:00,18.9,9.8,30.18,South,176,6.0,16.0,67,0.00,,---,0.00,VWS V14.01,2013-02-17 14:24:00,
2013-02-17 09:30:00,19.4,10.6,30.19,NW,325,9.0,14.0,68,0.00,,---,0.00,VWS V14.01,2013-02-17 14:30:00,
2013-02-17 09:35:00,19.4,10.2,30.19,NW,326,9.0,11.0,67,0.00,,---,0.00,VWS V14.01,2013-02-17 14:35:00,
2013-02-17 09:40:00,19.6,10.8,30.18,NW,326,11.0,15.0,68,0.00,,---,0.00,VWS V14.01,2013-02-17 14:40:00,
2013-02-17 09:45:00,20.6,11.1,30.19,West,273,8.0,10.0,66,0.00,,---,0.00,VWS V14.01,2013-02-17 14:45:00,
2013-02-17 09:50:00,20.1,10.6,30.19,West,274,5.0,9.0,66,0.00,,---,0.00,VWS V14.01,2013-02-17 14:50:00,
2013-02-17 09:55:00,22.4,13.8,30.19,WNW,301,5.0,9.0,69,0.00,,---,0.00,VWS V14.01,2013-02-17 14:55:00,
2013-02-17 10:00:00,21.2,11.3,30.19,SW,225,6.0,15.0,65,0.00,,---,0.00,VWS V14.01,2013-02-17 15:00:00,
2013-02-17 10:05:00,20.8,10.9,30.19,West,263,5.0,10.0,65,0.00,,---,0.00,VWS V14.01,2013-02-17 15:05:00,
2013-02-17 10:10:00,22.2,12.6,30.19,West,264,8.0,13.0,66,0.00,,---,0.00,VWS V14.01,2013-02-17 15:10:00,
2013-02-17 10:15:00,21.7,11.8,30.20,SW,228,11.0,11.0,65,0.00,,---,0.00,VWS V14.01,2013-02-17 15:15:00,
2013-02-17 10:20:00,22.0,12.7,30.19,SSE,164,3.0,11.0,67,0.00,,---,0.00,VWS V14.01,2013-02-17 15:20:00,
2013-02-17 10:25:00,22.6,12.6,30.20,SW,227,7.0,10.0,65,0.00,,---,0.00,VWS V14.01,2013-02-17 15:25:00,
2013-02-17 10:30:00,23.1,12.4,30.20,SSW,199,7.0,10.0,63,0.00,,---,0.00,VWS V14.01,2013-02-17 15:30:00,
2013-02-17 10:35:00,22.9,11.1,30.20,WSW,255,8.0,14.0,60,0.00,,---,0.00,VWS V14.01,2013-02-17 15:35:00,
2013-02-17 10:40:00,23.9,13.5,30.21,NW,322,2.0,13.0,64,0.00,,---,0.00,VWS V14.01,2013-02-17 15:40:00,
2013-02-17 10:45:00,24.3,13.5,30.21,NE,42,8.0,11.0,63,0.00,,---,0.00,VWS V14.01,2013-02-17 15:45:00,
2013-02-17 10:50:00,23.6,12.9,30.22,South,191,7.0,8.0,63,0.00,,---,0.00,VWS V14.01,2013-02-17 15:50:00,
2013-02-17 10:55:00,24.1,12.6,30.22,SW,232,10.0,12.0,61,0.00,,---,0.00,VWS V14.01,2013-02-17 15:55:00,
2013-02-17 11:00:00,24.1,12.6,30.23,WSW,257,9.0,11.0,61,0.00,,---,0.00,VWS V14.01,2013-02-17 16:00:00,
2013-02-17 11:05:00,24.7,13.2,30.22,South,190,6.0,12.0,61,0.00,,---,0.00,VWS V14.01,2013-02-17 16:05:00,
2013-02-17 11:10:00,25.2,14.4,30.22,WSW,249,7.0,13.0,63,0.00,,---,0.00,VWS V14.01,2013-02-17 16:10:00,
2013-02-17 11:15:00,24.3,11.7,30.23,NW,319,5.0,8.0,58,0.00,,---,0.00,VWS V14.01,2013-02-17 16:15:00,
2013-02-17 11:20:00,25.8,13.1,30.24,WSW,237,6.0,8.0,58,0.00,,---,0.00,VWS V14.01,2013-02-17 16:20:00,
2013-02-17 11:25:00,25.7,11.8,30.24,WSW,252,8.0,10.0,55,0.00,,---,0.00,VWS V14.01,2013-02-17 16:25:00,
2013-02-17 11:30:00,26.3,12.3,30.24,WNW,287,10.0,10.0,55,0.00,,---,0.00,VWS V14.01,2013-02-17 16:30:00,
2013-02-17 11:35:00,27.5,15.8,30.24,NNE,13,3.0,8.0,61,0.00,,---,0.00,VWS V14.01,2013-02-17 16:35:00,
2013-02-17 11:40:00,27.8,14.6,30.24,NW,307,3.0,8.0,57,0.00,,---,0.00,VWS V14.01,2013-02-17 16:40:00,
2013-02-17 11:45:00,29.6,16.2,30.23,SW,224,12.0,14.0,57,0.00,,---,0.00,VWS V14.01,2013-02-17 16:45:00,
2013-02-17 11:50:00,29.0,13.1,30.23,WNW,301,16.0,16.0,51,0.00,,---,0.00,VWS V14.01,2013-02-17 16:50:00,
2013-02-17 11:55:00,29.3,13.4,30.24,NNE,30,8.0,8.0,51,0.00,,---,0.00,VWS V14.01,2013-02-17 16:55:00,
2013-02-17 12:00:00,29.1,11.9,30.23,NE,35,4.0,10.0,48,0.00,,---,0.00,VWS V14.01,2013-02-17 17:00:00,
2013-02-17 12:05:00,29.4,12.1,30.23,NW,314,9.0,13.0,48,0.00,,---,0.00,VWS V14.01,2013-02-17 17:05:00,
2013-02-17 12:10:00,28.3,10.7,30.23,SW,227,5.0,8.0,47,0.00,,---,0.00,VWS V14.01,2013-02-17 17:10:00,
2013-02-17 12:15:00,30.1,13.3,30.24,WNW,285,1.0,5.0,49,0.00,,---,0.00,VWS V14.01,2013-02-17 17:15:00,
2013-02-17 12:20:00,29.0,10.3,30.24,NW,309,6.0,9.0,45,0.00,,---,0.00,VWS V14.01,2013-02-17 17:20:00,
2013-02-17 12:25:00,29.8,10.6,30.24,WNW,301,6.0,11.0,44,0.01,,---,0.01,VWS V14.01,2013-02-17 17:25:00,
2013-02-17 12:30:00,29.6,9.3,30.24,East,81,4.0,11.0,42,0.01,,---,0.01,VWS V14.01,2013-02-17 17:30:00,
2013-02-17 12:35:00,29.5,10.8,30.25,NW,324,4.0,6.0,45,0.01,,---,0.01,VWS V14.01,2013-02-17 17:35:00,
2013-02-17 12:40:00,30.3,12.5,30.25,West,273,3.0,6.0,47,0.01,,---,0.01,VWS V14.01,2013-02-17 17:40:00,
2013-02-17 12:45:00,30.7,10.3,30.25,WSW,254,4.0,7.0,42,0.01,,---,0.01,VWS V14.01,2013-02-17 17:45:00,
2013-02-17 12:50:00,31.4,12.5,30.24,WSW,242,7.0,8.0,45,0.01,,---,0.01,VWS V14.01,2013-02-17 17:50:00,
2013-02-17 12:55:00,31.2,12.8,30.25,SSW,199,4.0,5.0,46,0.01,,---,0.01,VWS V14.01,2013-02-17 17:55:00,
2013-02-17 13:00:00,31.6,13.2,30.24,WSW,244,3.0,7.0,46,0.01,,---,0.01,VWS V14.01,2013-02-17 18:00:00,
2013-02-17 13:05:00,31.7,13.8,30.24,North,354,8.0,8.0,47,0.01,,---,0.01,VWS V14.01,2013-02-17 18:05:00,
2013-02-17 13:10:00,31.4,14.0,30.24,West,259,5.0,8.0,48,0.01,,---,0.01,VWS V14.01,2013-02-17 18:10:00,
2013-02-17 13:15:00,31.7,12.8,30.24,WNW,295,9.0,9.0,45,0.01,,---,0.01,VWS V14.01,2013-02-17 18:15:00,
2013-02-17 13:20:00,31.0,11.1,30.24,West,265,11.0,11.0,43,0.01,,---,0.01,VWS V14.01,2013-02-17 18:20:00,
2013-02-17 13:25:00,30.4,11.6,30.25,NW,318,2.0,6.0,45,0.00,,---,0.01,VWS V14.01,2013-02-17 18:25:00,
2013-02-17 13:30:00,31.4,12.0,30.25,NW,305,2.0,5.0,44,0.00,,---,0.01,VWS V14.01,2013-02-17 18:30:00,
2013-02-17 13:35:00,31.0,10.6,30.24,West,259,5.0,6.0,42,0.00,,---,0.01,VWS V14.01,2013-02-17 18:35:00,
2013-02-17 13:40:00,31.3,11.9,30.24,SW,235,2.0,6.0,44,0.00,,---,0.01,VWS V14.01,2013-02-17 18:40:00,
2013-02-17 13:45:00,31.5,11.1,30.24,WNW,301,5.0,9.0,42,0.00,,---,0.01,VWS V14.01,2013-02-17 18:45:00,
2013-02-17 13:50:00,31.7,11.2,30.24,WSW,247,2.0,4.0,42,0.00,,---,0.01,VWS V14.01,2013-02-17 18:50:00,
2013-02-17 13:55:00,31.1,11.8,30.24,WSW,257,1.0,7.0,44,0.00,,---,0.01,VWS V14.01,2013-02-17 18:55:00,
2013-02-17 14:00:00,30.8,11.5,30.25,WNW,297,2.0,9.0,44,0.00,,---,0.01,VWS V14.01,2013-02-17 19:00:00,
2013-02-17 14:05:00,31.0,12.2,30.24,West,268,5.0,9.0,45,0.00,,---,0.01,VWS V14.01,2013-02-17 19:05:00,
2013-02-17 14:10:00,30.3,11.5,30.25,West,262,7.0,7.0,45,0.00,,---,0.01,VWS V14.01,2013-02-17 19:10:00,
2013-02-17 14:15:00,31.4,13.0,30.25,WNW,286,9.0,9.0,46,0.00,,---,0.01,VWS V14.01,2013-02-17 19:15:00,
2013-02-17 14:20:00,31.5,13.1,30.25,WNW,286,3.0,3.0,46,0.00,,---,0.01,VWS V14.01,2013-02-17 19:20:00,
2013-02-17 14:25:00,31.5,11.6,30.25,WSW,255,3.0,10.0,43,0.00,,---,0.01,VWS V14.01,2013-02-17 19:25:00,
2013-02-17 14:30:00,31.4,12.0,30.25,NNE,25,3.0,7.0,44,0.00,,---,0.01,VWS V14.01,2013-02-17 19:30:00,
2013-02-17 14:35:00,30.7,10.3,30.25,West,276,4.0,5.0,42,0.00,,---,0.01,VWS V14.01,2013-02-17 19:35:00,
2013-02-17 14:40:00,31.4,11.5,30.25,West,274,6.0,8.0,43,0.00,,---,0.01,VWS V14.01,2013-02-17 19:40:00,
2013-02-17 14:45:00,31.3,11.4,30.25,WNW,282,3.0,5.0,43,0.00,,---,0.01,VWS V14.01,2013-02-17 19:45:00,
2013-02-17 14:50:00,32.2,12.8,30.25,West,260,6.0,8.0,44,0.00,,---,0.01,VWS V14.01,2013-02-17 19:50:00,
2013-02-17 14:55:00,30.2,9.4,30.25,WNW,299,2.0,8.0,41,0.00,,---,0.01,VWS V14.01,2013-02-17 19:55:00,
2013-02-17 15:00:00,30.4,10.6,30.25,NNW,328,0.0,3.0,43,0.00,,---,0.01,VWS V14.01,2013-02-17 20:00:00,
2013-02-17 15:05:00,31.1,10.7,30.25,East,97,3.0,8.0,42,0.00,,---,0.01,VWS V14.01,2013-02-17 20:05:00,
2013-02-17 15:10:00,31.5,11.1,30.25,WNW,303,9.0,9.0,42,0.00,,---,0.01,VWS V14.01,2013-02-17 20:10:00,
2013-02-17 15:15:00,31.2,10.2,30.25,NW,308,2.0,3.0,41,0.00,,---,0.01,VWS V14.01,2013-02-17 20:15:00,
2013-02-17 15:20:00,30.9,11.1,30.25,West,259,4.0,11.0,43,0.00,,---,0.01,VWS V14.01,2013-02-17 20:20:00,
2013-02-17 15:25:00,30.9,11.1,30.25,WSW,256,2.0,4.0,43,0.00,,---,0.01,VWS V14.01,2013-02-17 20:25:00,
2013-02-17 15:30:00,30.5,10.2,30.25,SW,226,2.0,7.0,42,0.00,,---,0.01,VWS V14.01,2013-02-17 20:30:00,
2013-02-17 15:35:00,30.0,10.7,30.25,WNW,282,4.0,7.0,44,0.00,,---,0.01,VWS V14.01,2013-02-17 20:35:00,
2013-02-17 15:40:00,30.2,10.4,30.25,West,259,7.0,9.0,43,0.00,,---,0.01,VWS V14.01,2013-02-17 20:40:00,
2013-02-17 15:45:00,30.6,10.8,30.26,NW,326,3.0,5.0,43,0.00,,---,0.01,VWS V14.01,2013-02-17 20:45:00,
2013-02-17 15:50:00,30.4,10.1,30.26,WNW,303,9.0,14.0,42,0.00,,---,0.01,VWS V14.01,2013-02-17 20:50:00,
2013-02-17 15:55:00,29.3,9.6,30.26,SW,220,3.0,11.0,43,0.00,,---,0.01,VWS V14.01,2013-02-17 20:55:00,
2013-02-17 16:00:00,29.8,10.6,30.27,WNW,287,2.0,4.0,44,0.00,,---,0.01,VWS V14.01,2013-02-17 21:00:00,
2013-02-17 16:05:00,29.2,9.5,30.27,West,280,1.0,5.0,43,0.00,,---,0.01,VWS V14.01,2013-02-17 21:05:00,
2013-02-17 16:10:00,29.0,9.8,30.27,West,274,3.0,5.0,44,0.00,,---,0.01,VWS V14.01,2013-02-17 21:10:00,
2013-02-17 16:15:00,29.4,10.7,30.27,NW,308,1.0,4.0,45,0.00,,---,0.01,VWS V14.01,2013-02-17 21:15:00,
2013-02-17 16:20:00,29.1,9.4,30.27,NW,305,2.0,5.0,43,0.00,,---,0.01,VWS V14.01,2013-02-17 21:20:00,
2013-02-17 16:25:00,29.1,9.9,30.27,NW,314,5.0,6.0,44,0.00,,---,0.01,VWS V14.01,2013-02-17 21:25:00,
2013-02-17 16:30:00,28.6,10.0,30.28,NW,326,2.0,4.0,45,0.00,,---,0.01,VWS V14.01,2013-02-17 21:30:00,
2013-02-17 16:35:00,28.0,9.9,30.28,SSW,211,2.0,5.0,46,0.00,,---,0.01,VWS V14.01,2013-02-17 21:35:00,
2013-02-17 16:40:00,27.3,9.3,30.28,WSW,245,3.0,3.0,46,0.00,,---,0.01,VWS V14.01,2013-02-17 21:40:00,
2013-02-17 16:45:00,27.1,8.6,30.28,NW,304,2.0,3.0,45,0.00,,---,0.01,VWS V14.01,2013-02-17 21:45:00,
2013-02-17 16:50:00,27.0,9.0,30.28,WSW,239,1.0,5.0,46,0.00,,---,0.01,VWS V14.01,2013-02-17 21:50:00,
2013-02-17 16:55:00,26.8,9.3,30.28,West,264,3.0,5.0,47,0.00,,---,0.01,VWS V14.01,2013-02-17 21:55:00,
2013-02-17 17:00:00,26.6,9.6,30.28,NW,309,6.0,6.0,48,0.00,,---,0.01,VWS V14.01,2013-02-17 22:00:00,
2013-02-17 17:05:00,26.5,9.9,30.28,WSW,253,1.0,6.0,49,0.00,,---,0.01,VWS V14.01,2013-02-17 22:05:00,
2013-02-17 17:10:00,26.3,9.8,30.28,West,269,2.0,6.0,49,0.00,,---,0.01,VWS V14.01,2013-02-17 22:10:00,
2013-02-17 17:15:00,26.0,9.5,30.28,WNW,289,1.0,5.0,49,0.00,,---,0.01,VWS V14.01,2013-02-17 22:15:00,
2013-02-17 17:20:00,25.7,9.6,30.28,WSW,252,2.0,3.0,50,0.00,,---,0.01,VWS V14.01,2013-02-17 22:20:00,
2013-02-17 17:25:00,25.5,9.5,30.29,WSW,252,5.0,5.0,50,0.00,,---,0.01,VWS V14.01,2013-02-17 22:25:00,
2013-02-17 17:30:00,25.2,9.6,30.29,NW,318,3.0,3.0,51,0.00,,---,0.01,VWS V14.01,2013-02-17 22:30:00,
2013-02-17 17:35:00,25.1,9.5,30.29,WNW,289,1.0,5.0,51,0.00,,---,0.01,VWS V14.01,2013-02-17 22:35:00,
2013-02-17 17:40:00,24.9,9.8,30.30,West,272,2.0,5.0,52,0.00,,---,0.01,VWS V14.01,2013-02-17 22:40:00,
2013-02-17 17:45:00,24.8,9.7,30.30,NW,305,1.0,2.0,52,0.00,,---,0.01,VWS V14.01,2013-02-17 22:45:00,
2013-02-17 17:50:00,24.6,9.5,30.30,NNW,336,1.0,4.0,52,0.00,,---,0.01,VWS V14.01,2013-02-17 22:50:00,
2013-02-17 17:55:00,24.3,9.2,30.31,WNW,295,3.0,6.0,52,0.00,,---,0.01,VWS V14.01,2013-02-17 22:55:00,
2013-02-17 18:00:00,24.2,9.6,30.31,West,271,3.0,4.0,53,0.00,,---,0.01,VWS V14.01,2013-02-17 23:00:00,
2013-02-17 18:05:00,23.9,9.7,30.32,NNW,329,1.0,4.0,54,0.00,,---,0.01,VWS V14.01,2013-02-17 23:05:00,
2013-02-17 18:10:00,23.5,9.7,30.32,WNW,282,3.0,5.0,55,0.00,,---,0.01,VWS V14.01,2013-02-17 23:10:00,
2013-02-17 18:15:00,23.2,9.4,30.32,West,278,1.0,7.0,55,0.00,,---,0.01,VWS V14.01,2013-02-17 23:15:00,
2013-02-17 18:20:00,22.9,10.0,30.32,WNW,286,1.0,6.0,57,0.00,,---,0.01,VWS V14.01,2013-02-17 23:20:00,
2013-02-17 18:25:00,22.6,9.7,30.32,NNW,332,3.0,6.0,57,0.00,,---,0.01,VWS V14.01,2013-02-17 23:25:00,
2013-02-17 18:30:00,22.5,9.6,30.32,WNW,284,0.0,4.0,57,0.00,,---,0.01,VWS V14.01,2013-02-17 23:30:00,
2013-02-17 18:35:00,22.4,9.9,30.32,NW,323,2.0,3.0,58,0.00,,---,0.01,VWS V14.01,2013-02-17 23:35:00,
2013-02-17 18:40:00,22.1,10.0,30.32,NNW,332,2.0,4.0,59,0.00,,---,0.01,VWS V14.01,2013-02-17 23:40:00,
2013-02-17 18:45:00,22.0,9.9,30.32,NW,309,2.0,4.0,59,0.00,,---,0.01,VWS V14.01,2013-02-17 23:45:00,
2013-02-17 18:50:00,21.9,10.2,30.33,WNW,295,3.0,6.0,60,0.00,,---,0.01,VWS V14.01,2013-02-17 23:50:00,
2013-02-17 18:55:00,21.9,10.2,30.33,NNW,330,4.0,4.0,60,0.00,,---,0.01,VWS V14.01,2013-02-17 23:55:00,
2013-02-17 19:00:00,21.8,10.8,30.32,WNW,303,2.0,5.0,62,0.00,,---,0.01,VWS V14.01,2013-02-18 00:00:00,
2013-02-17 19:05:00,21.7,10.7,30.33,West,270,3.0,6.0,62,0.00,,---,0.01,VWS V14.01,2013-02-18 00:05:00,
2013-02-17 19:10:00,21.6,10.2,30.33,NW,311,2.0,4.0,61,0.00,,---,0.01,VWS V14.01,2013-02-18 00:10:00,
2013-02-17 19:15:00,21.5,10.5,30.33,West,270,5.0,5.0,62,0.00,,---,0.01,VWS V14.01,2013-02-18 00:15:00,
2013-02-17 19:20:00,21.4,10.4,30.33,West,277,4.0,5.0,62,0.00,,---,0.01,VWS V14.01,2013-02-18 00:20:00,
2013-02-17 19:25:00,21.3,10.7,30.33,WNW,287,4.0,8.0,63,0.00,,---,0.01,VWS V14.01,2013-02-18 00:25:00,
2013-02-17 19:30:00,21.2,10.2,30.33,NW,316,2.0,3.0,62,0.00,,---,0.01,VWS V14.01,2013-02-18 00:30:00,
2013-02-17 19:35:00,21.2,10.6,30.34,West,270,5.0,5.0,63,0.00,,---,0.01,VWS V14.01,2013-02-18 00:35:00,
2013-02-17 19:40:00,21.2,10.6,30.33,NNW,338,4.0,6.0,63,0.00,,---,0.01,VWS V14.01,2013-02-18 00:40:00,
2013-02-17 19:45:00,21.1,10.5,30.33,WNW,285,1.0,6.0,63,0.00,,---,0.01,VWS V14.01,2013-02-18 00:45:00,
2013-02-17 19:50:00,21.2,10.6,30.33,WSW,253,5.0,7.0,63,0.00,,---,0.01,VWS V14.01,2013-02-18 00:50:00,
2013-02-17 19:55:00,21.1,10.5,30.33,NW,324,2.0,6.0,63,0.00,,---,0.01,VWS V14.01,2013-02-18 00:55:00,
2013-02-17 20:00:00,20.9,10.6,30.33,North,357,2.0,8.0,64,0.00,,---,0.01,VWS V14.01,2013-02-18 01:00:00,
2013-02-17 20:05:00,20.9,10.6,30.33,NW,320,4.0,4.0,64,0.00,,---,0.01,VWS V14.01,2013-02-18 01:05:00,
2013-02-17 20:10:00,21.0,10.4,30.34,West,269,4.0,5.0,63,0.00,,---,0.01,VWS V14.01,2013-02-18 01:10:00,
2013-02-17 20:15:00,20.9,10.3,30.34,NNW,336,1.0,4.0,63,0.00,,---,0.01,VWS V14.01,2013-02-18 01:15:00,
2013-02-17 20:20:00,20.8,10.2,30.34,WNW,290,3.0,3.0,63,0.00,,---,0.01,VWS V14.01,2013-02-18 01:20:00,
2013-02-17 20:25:00,20.8,10.2,30.34,WSW,257,2.0,3.0,63,0.00,,---,0.01,VWS V14.01,2013-02-18 01:25:00,
2013-02-17 20:30:00,20.8,10.2,30.34,West,274,3.0,4.0,63,0.00,,---,0.01,VWS V14.01,2013-02-18 01:30:00,
2013-02-17 20:35:00,20.6,10.4,30.34,North,353,3.0,5.0,64,0.00,,---,0.01,VWS V14.01,2013-02-18 01:35:00,
2013-02-17 20:40:00,20.7,10.5,30.35,WNW,283,3.0,6.0,64,0.00,,---,0.01,VWS V14.01,2013-02-18 01:40:00,
2013-02-17 20:45:00,20.6,10.7,30.34,WNW,291,4.0,5.0,65,0.00,,---,0.01,VWS V14.01,2013-02-18 01:45:00,
2013-02-17 20:50:00,20.5,10.6,30.34,NW,316,2.0,5.0,65,0.00,,---,0.01,VWS V14.01,2013-02-18 01:50:00,
2013-02-17 20:55:00,20.4,10.5,30.34,West,275,2.0,6.0,65,0.00,,---,0.01,VWS V14.01,2013-02-18 01:55:00,
2013-02-17 21:00:00,20.4,10.5,30.34,NW,316,3.0,6.0,65,0.00,,---,0.01,VWS V14.01,2013-02-18 02:00:00,
2013-02-17 21:05:00,20.6,10.7,30.34,NW,324,3.0,7.0,65,0.00,,---,0.01,VWS V14.01,2013-02-18 02:05:00,
2013-02-17 21:10:00,20.4,10.9,30.35,WNW,301,3.0,7.0,66,0.00,,---,0.01,VWS V14.01,2013-02-18 02:10:00,
2013-02-17 21:15:00,20.4,10.9,30.35,WNW,298,2.0,4.0,66,0.00,,---,0.01,VWS V14.01,2013-02-18 02:15:00,
2013-02-17 21:20:00,20.6,10.7,30.35,West,271,3.0,7.0,65,0.00,,---,0.01,VWS V14.01,2013-02-18 02:20:00,
2013-02-17 21:25:00,20.5,10.6,30.35,NW,322,2.0,7.0,65,0.00,,---,0.01,VWS V14.01,2013-02-18 02:25:00,
2013-02-17 21:30:00,20.5,10.6,30.35,WNW,284,2.0,8.0,65,0.00,,---,0.01,VWS V14.01,2013-02-18 02:30:00,
2013-02-17 21:35:00,20.5,10.6,30.35,North,349,1.0,3.0,65,0.00,,---,0.01,VWS V14.01,2013-02-18 02:35:00,
2013-02-17 21:40:00,20.5,10.6,30.36,NNW,334,2.0,5.0,65,0.00,,---,0.01,VWS V14.01,2013-02-18 02:40:00,
2013-02-17 21:45:00,20.8,10.9,30.36,NW,306,2.0,8.0,65,0.00,,---,0.01,VWS V14.01,2013-02-18 02:45:00,
2013-02-17 21:50:00,20.7,10.5,30.36,West,274,5.0,9.0,64,0.00,,---,0.01,VWS V14.01,2013-02-18 02:50:00,
2013-02-17 21:55:00,20.7,10.5,30.35,NW,320,2.0,9.0,64,0.00,,---,0.01,VWS V14.01,2013-02-18 02:55:00,
2013-02-17 22:00:00,20.7,11.1,30.36,WSW,241,2.0,8.0,66,0.00,,---,0.01,VWS V14.01,2013-02-18 03:00:00,
2013-02-17 22:05:00,20.8,10.9,30.36,WNW,303,3.0,3.0,65,0.00,,---,0.01,VWS V14.01,2013-02-18 03:05:00,
2013-02-17 22:10:00,20.7,11.1,30.36,NW,304,5.0,7.0,66,0.00,,---,0.01,VWS V14.01,2013-02-18 03:10:00,
2013-02-17 22:15:00,20.8,11.2,30.36,NNW,333,2.0,4.0,66,0.00,,---,0.01,VWS V14.01,2013-02-18 03:15:00,
2013-02-17 22:20:00,20.6,11.1,30.35,NW,317,4.0,5.0,66,0.00,,---,0.01,VWS V14.01,2013-02-18 03:20:00,
2013-02-17 22:25:00,20.4,10.9,30.35,NW,305,7.0,7.0,66,0.00,,---,0.01,VWS V14.01,2013-02-18 03:25:00,
2013-02-17 22:30:00,20.6,11.1,30.35,North,349,3.0,5.0,66,0.00,,---,0.01,VWS V14.01,2013-02-18 03:30:00,
2013-02-17 22:35:00,20.7,11.1,30.35,NNW,328,2.0,4.0,66,0.00,,---,0.01,VWS V14.01,2013-02-18 03:35:00,
2013-02-17 22:40:00,20.8,11.2,30.35,WNW,287,1.0,4.0,66,0.00,,---,0.01,VWS V14.01,2013-02-18 03:40:00,
2013-02-17 22:45:00,20.6,10.7,30.36,NNW,342,2.0,6.0,65,0.00,,---,0.01,VWS V14.01,2013-02-18 03:45:00,
2013-02-17 22:50:00,20.7,11.1,30.36,WSW,254,4.0,4.0,66,0.00,,---,0.01,VWS V14.01,2013-02-18 03:50:00,
2013-02-17 22:55:00,20.8,11.2,30.36,WNW,287,0.0,4.0,66,0.00,,---,0.01,VWS V14.01,2013-02-18 03:55:00,
2013-02-17 23:00:00,20.8,10.9,30.36,WSW,257,4.0,4.0,65,0.00,,---,0.01,VWS V14.01,2013-02-18 04:00:00,
2013-02-17 23:05:00,21.1,11.2,30.36,NNW,330,2.0,3.0,65,0.00,,---,0.01,VWS V14.01,2013-02-18 04:05:00,
2013-02-17 23:10:00,21.2,10.9,30.36,NW,310,4.0,6.0,64,0.00,,---,0.01,VWS V14.01,2013-02-18 04:10:00,
2013-02-17 23:15:00,21.4,11.5,30.35,NNW,331,2.0,8.0,65,0.00,,---,0.01,VWS V14.01,2013-02-18 04:15:00,
2013-02-17 23:20:00,21.2,11.3,30.35,SW,214,3.0,9.0,65,0.00,,---,0.01,VWS V14.01,2013-02-18 04:20:00,
2013-02-17 23:25:00,20.9,11.3,30.35,West,276,3.0,5.0,66,0.00,,---,0.01,VWS V14.01,2013-02-18 04:25:00,
2013-02-17 23:30:00,21.1,11.9,30.35,NW,326,3.0,4.0,67,0.00,,---,0.01,VWS V14.01,2013-02-18 04:30:00,
2013-02-17 23:35:00,21.3,11.4,30.35,NNW,331,2.0,7.0,65,0.00,,---,0.01,VWS V14.01,2013-02-18 04:35:00,
2013-02-17 23:40:00,21.7,12.1,30.35,West,259,4.0,6.0,66,0.00,,---,0.01,VWS V14.01,2013-02-18 04:40:00,
2013-02-17 23:45:00,21.6,12.0,30.35,NNW,336,4.0,7.0,66,0.00,,---,0.01,VWS V14.01,2013-02-18 04:45:00,
2013-02-17 23:50:00,21.2,11.6,30.36,NW,317,3.0,6.0,66,0.00,,---,0.01,VWS V14.01,2013-02-18 04:50:00,
2013-02-17 23:55:00,21.0,11.8,30.35,North,353,3.0,5.0,67,0.00,,---,0.01,VWS V14.01,2013-02-18 04:55:00,